• Processing (Info)

  • MPEC 2012-V74 : 2012 VE46

    The following Minor Planet Electronic Circular may be linked-to from your own Web pages, but must not otherwise be redistributed electronically.

    A form allowing access to any MPEC is at the bottom of this page.


    Read MPEC 2012-V73 Read MPEC 2012-V75


    M.P.E.C. 2012-V74                                Issued 2012 Nov. 13, 14:08 UT
    
         The Minor Planet Electronic Circulars contain information on unusual
             minor planets and routine data on comets.  They are published
       on behalf of Commission 20 of the International Astronomical Union by the
              Minor Planet Center, Smithsonian Astrophysical Observatory,
                              Cambridge, MA 02138, U.S.A.
    
                 Prepared using the Tamkin Foundation Computer Network
    
                                  MPC@CFA.HARVARD.EDU
                URL https://www.minorplanetcenter.net/    ISSN 1523-6714
    
                                       2012 VE46
    
    Observations:
         K12V46E* C2012 11 06.21099020 01 28.578-11 51 31.29         20.5 wLEV074F51
         K12V46E  C2012 11 06.21563020 01 29.284-11 51 25.03         20.5 wLEV074F51
         K12V46E  C2012 11 06.22491020 01 30.676-11 51 12.29         20.5 wLEV074F51
         K12V46E KC2012 11 07.11723 20 03 53.25 -11 31 26.6          20.0 RoEV074291
         K12V46E KC2012 11 07.11877 20 03 53.48 -11 31 24.6          19.9 RoEV074291
         K12V46E KC2012 11 07.12029 20 03 53.72 -11 31 22.3          20.0 RoEV074291
         K12V46E |C2012 11 08.05050 20 06 17.48 -11 10 31.7          19.9 VuEV074807
         K12V46E |C2012 11 08.05261 20 06 17.78 -11 10 28.9          20.0 VuEV074807
         K12V46E |C2012 11 08.05502 20 06 18.13 -11 10 26.3          19.9 VuEV074807
         K12V46E |C2012 11 08.05740 20 06 18.49 -11 10 23.3          20.1 VuEV074807
         K12V46E |C2012 11 12.04610 20 15 48.07 -09 48 08.1          20.2 VuEV074807
         K12V46E |C2012 11 12.04961 20 15 48.51 -09 48 04.2          20.3 VuEV074807
         K12V46E |C2012 11 12.05311 20 15 48.96 -09 48 00.1          20.3 VuEV074807
         K12V46E |C2012 11 12.05660 20 15 49.41 -09 47 55.9          20.4 VuEV074807
         K12V46E |C2012 11 12.06009 20 15 49.86 -09 47 51.8          20.4 VuEV074807
    
    Observer details:
    291 LPL/Spacewatch II.  Observer T. H. Bressi.  1.8-m f/2.7 reflector + CCD.
    807 Cerro Tololo.  Observers T. Linder, R. Holmes, R. Sampson.  0.41-m f/11
        Ritchey-Chretien + CCD.
    F51 Pan-STARRS 1, Haleakala.  Observers N. Primak, A. Schultz, S. Watters,
        T. Goggia.  Measurer PS1 Science Consortium.  1.8-m Ritchey-Chretien
        + CCD.
    
    Orbital elements:
    2012 VE46                                           PHA, Earth MOID = 0.0324 AU
    Epoch 2012 Sept. 30.0 TT = JDT 2456200.5                MPC
    M 138.18619              (2000.0)            P               Q
    n   1.64066399     Peri.  190.36842     -0.94398359     +0.32949386
    a   0.7119611      Node     8.93306     -0.29378772     -0.81412272
    e   0.3632183      Incl.    6.70582     -0.15027895     -0.47816105
    P   0.60           H   20.1           G   0.15           U   9
    Residuals in seconds of arc
    121106 F51  0.1-  0.0     121107 291  0.2+  0.1+    121112 807  0.0   0.3+
    121106 F51  0.1+  0.1-    121108 807  0.1-  0.4+    121112 807  0.1-  0.0
    121106 F51  0.0   0.0     121108 807  0.2-  0.4+    121112 807  0.0   0.1-
    121107 291  0.0   0.1-    121108 807  0.2-  0.1-    121112 807  0.1+  0.1-
    121107 291  0.0   0.1-    121108 807  0.0   0.3-    121112 807  0.2+  0.2-
    
    Ephemeris:
    2012 VE46                a,e,i = 0.71, 0.36, 7                   Q = 0.9706
    Date    TT    R. A. (2000) Decl.     Delta      r     Elong.  Phase     V
    2012 10 14    18 22 00.4 -22 49 49   0.1923  0.9630    74.2    94.7    19.8
    ...
    2012 10 29    19 35 45.4 -15 13 21   0.2365  0.9699    77.5    88.7    20.0
    ...
    2012 11 06    20 00 55.0 -11 56 00   0.2612  0.9630    76.2    88.5    20.2
    ...
    2012 11 12    20 15 43.3 -09 49 17   0.2784  0.9531    74.3    89.3    20.4
    2012 11 13    20 17 54.7 -09 29 46   0.2811  0.9510    73.9    89.6    20.4
    2012 11 14    20 20 01.8 -09 10 42   0.2838  0.9488    73.5    89.8    20.4
    ...
    2012 11 20    20 31 16.4 -07 25 11   0.2985  0.9334    70.8    91.6    20.6
    ...
    2012 11 28    20 42 30.2 -05 28 00   0.3142  0.9064    66.2    95.3    20.8
    ...
    2012 12 13    20 51 02.8 -03 11 56   0.3307  0.8361    54.3   106.9    21.3
    
    A. U. Tomatic                (C) Copyright 2012 MPC           M.P.E.C. 2012-V74
    

    Read MPEC 2012-V73 Read MPEC 2012-V75


    MPEC number:

    Enter an MPEC number in one of the following forms:

    • 1997-B01 (the full form)
    • J97B01 (the packed version of the full form)
    • B01 (the abbreviated form)